sat.trackr.live / text

‹ back to catalog

STARLINK-3913

NORAD 52485 · 2022-049AL

PAYLOAD ACTIVE UNKNOWN

§ Identity

Operator
Country
US
Launch date
2022-05-06
Launch site
AFETR
Launch vehicle
Mass (kg)
RCS (m²)

Purposes: comms

External: N2YO · Heavens-Above · Gunter

§ Orbital elements

Epoch: 2026-05-25T02:02:16.516032Z

Period
95.44 min
Inclination
53.2144°
Eccentricity
0.0001561
Mean motion
15.08817695 rev/d
Perigee alt
538.7 km
Apogee alt
540.9 km
Semi-major
6,917.9 km
B*
-6.6464e-5
RAAN
66.1702°
Arg perigee
99.1942°
Mean anomaly
260.9227°
Rev number
22,392

§ Raw data

STARLINK-39131 52485U 22049AL  26145.08491338 -.00001345  00000+0 -66464-4 0  99992 52485  53.2144  66.1702 0001561  99.1942 260.9227 15.08817695223920

JSON: /api/v1/satellites/52485 · /tle

For live sub-satellite position, see the globe view (requires WebGL).

§ Visibility from observer

Set your observer location to see the next 7 days of passes ≥ 10°. The values pass through the URL so the page stays shareable.

No JS? Fill the form by hand. The geolocation button needs JavaScript.